Location: Arroyo Grande
(40.2671°N, 4.2512°W)
Time: 03:08:09
(UTC+00:00)

SKYMED 2 - Pass Details

Date: 03 February 2023
Orbit: 621 x 623 km, 97.9° (Epoch: 26 March)

Event Time Altitude Azimuth Distance (km) Brightness Sun altitude
Rises 17:54:39 0° 20° (NNE) 2,915 6.6 -3.9°
Reaches altitude 10° 17:56:57 10° 27° (NNE) 2,003 5.8 -4.3°
Maximum altitude 18:01:05 42° 98° (E) 895 4.0 -5.1°
Drops below altitude 10° 18:05:12 10° 170° (S) 1,986 6.3 -5.8°
Sets 18:07:28 0° 177° (S) 2,887 7.2 -6.2°
